SCP
0 0 0 0 0 0 0 0 0 0 0 0 0 0 0 0 0 0 0 0 0 0 0 0 0 0 0 0 0 0 0 0
0 0 0 0 0 0 0 0 0 0 0 0 0 0 0 0 0 0 0 0 0 0 0 0 0 0 0 0 0 -0 0 0
0 0 0 0 0 0 0 0 0 0 0 0 0 0 0 0 0 0 0 0 0 0 0 0 0 0 0 -0 -0 -0 -0 -0
0 0 0 0 0 0 0 0 0 0 0 0 0 0 0 0 0 0 0 0 0 0 0 0 0 -0 -0 -0 -0 -0 -0 0
0 0 0 0 0 0 0 0 0 0 0 0 0 0 0 0 0 0 0 0 0 0 0 0 0 -0 -0 0 0 0 0 0
0 0 0 0 0 0 0 0 0 0 0 0 0 0 0 0 0 0 0 0 0 0 0 -0 0 0 0 0 0 0 0 0
0 0 0 0 0 0 0 0 0 0 0 0 0 0 0 0 0 0 0 0 0 0 0 0 0 0 0 0 0 0 0 0
0 0 0 0 0 0 0 0 0 0 0 0 0 0 0 0 0 0 0 0 0 0 0 0 0 0 0 0 0 0 0 0
0 0 0 0 0 0 0 0 0 0 0 0 0 0 0 0 0 0 0 0 0 0 0 0 0 0 0 0 0 0 0 0
0 0 0 0 0 0 0 0 0 0 0 0 0 0 0 0 0 0 0 0 0 0 0 0 0 0 0 0 0 0 0 0
0 0 0 0 0 0 0 0 0 0 0 0 0 0 -0 -0 0 0 0 0 0 0 0 0 0 0 0 0 0 0 0 0
0 0 0 0 0 0 0 0 0 0 0 0 0 0 0 -0 -0 -0 0 0 0 0 0 0 0 0 0 0 0 0 0 0
0 0 0 0 0 0 0 0 0 0 0 0 -0 -0 0 0 0 0 0 0 0 0 0 0 0 0 0 0 0 0 0 0
0 0 0 0 0 0 0 0 0 0 0 -0 -0 -0 -0 -0 -0 0 0 0 0 0 0 0 0 0 0 0 0 0 0 0
0 0 0 0 0 0 0 0 0 0 0 0 0 0 0 -0 -0 0 0 0 0 0 0 0 0 0 0 0 0 0 0 0
0 0 0 0 0 0 0 0 0 0 -0 -0 -0 -0 -0 -0 -0 0 0 0 0 0 0 0 0 0 0 0 0 0 0 0
0 0 0 0 0 0 0 0 0 0 -0 -0 -0 -0 -0 -0 0 0 0 0 0 0 0 0 0 0 0 0 0 0 0 0
0 0 0 0 0 -0 0 -0 -0 -0 -0 -0 -0 -0 -0 0 0 0 0 0 0 0 0 0 0 0 0 0 0 0 0 0
0 0 0 0 -0 -0 -0 -0 -0 -0 -0 -0 -0 -0 0 0 0 0 0 0 0 0 0 0 0 0 0 0 0 0 0 0
0 0 -0 -0 -0 -0 -0 -0 -0 -0 -0 -0 -0 -0 0 0 0 0 0 0 0 0 0 0 0 0 0 0 0 0 0 0
Wind_Speed_500mb
87 90 88 85 72 53 39 32 22 13 4 22 24 20 13 7 5 5 1 3 12 18 8 15 17 27 20 7 5 5 13 20
97 96 95 85 69 54 42 32 24 16 7 22 26 22 12 11 8 7 4 1 8 15 11 14 15 22 22 9 3 5 9 18
97 100 95 83 68 54 41 34 29 21 10 27 27 21 18 12 12 7 3 5 6 13 19 13 14 22 23 12 7 13 17 21
91 95 90 82 69 59 47 40 36 24 16 28 30 22 19 17 6 8 8 8 11 15 18 11 11 15 15 14 11 15 18 22
95 98 89 77 70 61 53 43 34 25 17 21 31 30 17 16 11 13 13 13 17 20 10 5 3 3 4 8 15 18 21 23
91 93 82 72 70 61 48 41 33 23 19 22 31 25 17 14 13 16 17 16 12 6 4 1 4 7 12 16 21 24 28 29
94 90 81 75 69 58 47 38 30 25 23 30 25 22 18 19 17 16 12 11 5 0 7 14 20 22 24 24 35 38 39 44
89 84 77 74 66 54 43 36 31 27 24 27 24 23 19 18 18 10 6 6 3 9 16 23 30 40 35 40 49 54 49 42
81 78 77 69 58 47 38 33 31 26 25 25 23 19 19 9 2 5 7 1 10 19 26 22 25 26 22 18 19 27 35 41
77 75 66 58 49 42 35 32 29 31 35 25 22 25 21 11 3 1 5 10 19 21 24 20 16 15 20 23 25 35 30 31
71 65 60 52 42 35 34 35 36 36 28 24 18 15 17 13 11 12 12 14 20 20 20 22 21 20 24 27 32 37 32 31
66 60 56 52 43 35 38 36 38 37 34 29 22 15 14 15 20 16 17 19 26 34 38 36 36 32 27 28 34 36 31 27
57 49 45 38 29 34 40 38 38 41 35 32 26 21 16 11 13 19 23 27 35 42 41 43 44 29 25 30 28 27 18 15
48 39 36 33 27 22 42 40 46 36 36 33 22 16 11 13 17 20 16 27 29 28 23 17 17 20 18 23 19 13 15 16
40 36 31 26 21 39 44 52 42 39 36 24 15 17 15 17 16 18 25 23 19 20 17 6 7 16 19 11 11 7 15 28
34 32 27 18 36 45 53 46 41 35 23 18 13 13 14 13 14 22 27 9 2 5 6 6 5 5 3 5 5 16 22 23
32 30 24 30 47 54 45 41 40 27 21 24 18 16 15 10 24 23 5 6 7 7 6 5 9 8 0 10 14 19 23 27
40 35 28 54 54 42 39 38 36 26 20 19 10 9 8 15 11 4 10 16 12 6 11 13 11 4 13 20 21 20 25 25
25 26 57 51 42 38 35 34 33 32 22 16 12 4 2 9 25 8 11 11 9 10 12 9 7 19 19 22 21 21 28 29
31 51 47 39 37 35 33 27 28 26 20 12 11 7 3 23 12 5 5 11 10 8 13 11 16 22 21 15 15 19 23 29
Wind_Direction_500mb
188 190 192 190 192 193 203 204 191 174 216 166 155 158 161 168 158 155 135 337 0 11 11 10 12 13 13 59 116 52 12 9
188 190 192 191 191 193 198 196 195 187 187 172 167 178 184 168 179 191 213 316 320 335 350 2 16 16 18 43 302 351 337 344
184 187 190 189 189 190 194 199 195 194 201 179 177 185 187 189 196 191 200 254 298 314 333 333 5 4 14 27 360 332 315 320
180 186 189 189 190 189 194 196 194 199 200 189 187 192 195 205 206 198 223 231 272 284 321 297 334 341 7 7 348 346 340 333
184 191 192 191 191 193 194 194 195 200 188 199 196 196 206 203 229 224 262 244 255 279 304 271 332 64 26 20 8 355 324 343
184 190 192 193 191 192 192 194 196 197 185 170 171 186 199 219 243 236 279 250 275 289 50 86 318 309 307 310 312 313 327 326
192 192 194 189 189 191 192 192 196 190 186 182 187 194 214 218 229 257 265 188 179 316 320 316 319 332 313 314 304 302 313 315
190 190 188 186 189 192 192 193 193 185 187 185 193 204 205 207 256 230 167 159 204 297 314 317 313 318 318 309 300 298 304 318
185 183 183 186 187 190 190 191 189 181 189 190 200 215 197 190 163 156 150 137 306 309 316 327 324 319 326 346 337 330 322 314
178 176 178 182 185 190 190 187 176 179 182 192 208 199 201 214 242 236 194 294 305 313 322 315 314 321 341 348 351 346 335 314
173 175 174 175 182 192 188 175 181 185 185 192 185 172 181 204 244 227 268 284 294 302 313 321 329 324 325 327 333 338 337 335
172 175 175 174 186 196 181 185 186 192 183 181 186 196 224 243 261 252 263 292 301 306 307 305 310 312 314 320 328 335 339 340
174 179 183 188 198 184 184 187 189 179 185 185 194 210 228 243 268 283 297 316 315 312 313 308 301 310 311 315 329 344 358 16
173 179 186 192 203 204 177 175 173 185 185 178 187 203 237 281 297 306 319 317 342 342 347 337 321 305 308 319 347 2 358 9
176 178 184 189 213 181 174 166 170 172 175 187 207 244 249 277 304 320 318 339 343 338 346 15 11 326 313 327 348 13 356 347
169 177 179 192 173 169 162 166 173 174 180 186 210 222 244 285 304 321 328 324 290 61 105 2 24 341 322 349 340 325 355 1
173 174 179 169 162 159 164 174 173 176 199 212 222 245 237 290 329 333 49 141 133 137 115 65 133 154 46 25 6 6 16 18
174 174 175 157 155 164 170 177 177 191 197 191 218 246 236 310 350 155 121 147 151 105 74 101 120 100 22 23 26 31 27 18
166 169 158 155 157 165 168 177 188 188 195 213 242 277 248 353 161 133 103 148 148 126 95 83 34 10 30 26 26 25 24 12
154 155 159 155 152 165 175 186 193 200 209 236 295 268 215 170 168 130 94 140 141 100 104 76 40 29 24 33 51 31 8 11
Wind_Speed_850mb
87 90 88 85 72 53 39 32 22 13 4 22 24 20 13 7 5 5 1 3 12 18 8 15 17 27 20 7 5 5 13 20
97 96 95 85 69 54 42 32 24 16 7 22 26 22 12 11 8 7 4 1 8 15 11 14 15 22 22 9 3 5 9 18
97 100 95 83 68 54 41 34 29 21 10 27 27 21 18 12 12 7 3 5 6 13 19 13 14 22 23 12 7 13 17 21
91 95 90 82 69 59 47 40 36 24 16 28 30 22 19 17 6 8 8 8 11 15 18 11 11 15 15 14 11 15 18 22
95 98 89 77 70 61 53 43 34 25 17 21 31 30 17 16 11 13 13 13 17 20 10 5 3 3 4 8 15 18 21 23
91 93 82 72 70 61 48 41 33 23 19 22 31 25 17 14 13 16 17 16 12 6 4 1 4 7 12 16 21 24 28 29
94 90 81 75 69 58 47 38 30 25 23 30 25 22 18 19 17 16 12 11 5 0 7 14 20 22 24 24 35 38 39 44
89 84 77 74 66 54 43 36 31 27 24 27 24 23 19 18 18 10 6 6 3 9 16 23 30 40 35 40 49 54 49 42
81 78 77 69 58 47 38 33 31 26 25 25 23 19 19 9 2 5 7 1 10 19 26 22 25 26 22 18 19 27 35 41
77 75 66 58 49 42 35 32 29 31 35 25 22 25 21 11 3 1 5 10 19 21 24 20 16 15 20 23 25 35 30 31
71 65 60 52 42 35 34 35 36 36 28 24 18 15 17 13 11 12 12 14 20 20 20 22 21 20 24 27 32 37 32 31
66 60 56 52 43 35 38 36 38 37 34 29 22 15 14 15 20 16 17 19 26 34 38 36 36 32 27 28 34 36 31 27
57 49 45 38 29 34 40 38 38 41 35 32 26 21 16 11 13 19 23 27 35 42 41 43 44 29 25 30 28 27 18 15
48 39 36 33 27 22 42 40 46 36 36 33 22 16 11 13 17 20 16 27 29 28 23 17 17 20 18 23 19 13 15 16
40 36 31 26 21 39 44 52 42 39 36 24 15 17 15 17 16 18 25 23 19 20 17 6 7 16 19 11 11 7 15 28
34 32 27 18 36 45 53 46 41 35 23 18 13 13 14 13 14 22 27 9 2 5 6 6 5 5 3 5 5 16 22 23
32 30 24 30 47 54 45 41 40 27 21 24 18 16 15 10 24 23 5 6 7 7 6 5 9 8 0 10 14 19 23 27
40 35 28 54 54 42 39 38 36 26 20 19 10 9 8 15 11 4 10 16 12 6 11 13 11 4 13 20 21 20 25 25
25 26 57 51 42 38 35 34 33 32 22 16 12 4 2 9 25 8 11 11 9 10 12 9 7 19 19 22 21 21 28 29
31 51 47 39 37 35 33 27 28 26 20 12 11 7 3 23 12 5 5 11 10 8 13 11 16 22 21 15 15 19 23 29
Wind_Direction_850mb
188 190 192 190 192 193 203 204 191 174 216 166 155 158 161 168 158 155 135 337 0 11 11 10 12 13 13 59 116 52 12 9
188 190 192 191 191 193 198 196 195 187 187 172 167 178 184 168 179 191 213 316 320 335 350 2 16 16 18 43 302 351 337 344
184 187 190 189 189 190 194 199 195 194 201 179 177 185 187 189 196 191 200 254 298 314 333 333 5 4 14 27 360 332 315 320
180 186 189 189 190 189 194 196 194 199 200 189 187 192 195 205 206 198 223 231 272 284 321 297 334 341 7 7 348 346 340 333
184 191 192 191 191 193 194 194 195 200 188 199 196 196 206 203 229 224 262 244 255 279 304 271 332 64 26 20 8 355 324 343
184 190 192 193 191 192 192 194 196 197 185 170 171 186 199 219 243 236 279 250 275 289 50 86 318 309 307 310 312 313 327 326
192 192 194 189 189 191 192 192 196 190 186 182 187 194 214 218 229 257 265 188 179 316 320 316 319 332 313 314 304 302 313 315
190 190 188 186 189 192 192 193 193 185 187 185 193 204 205 207 256 230 167 159 204 297 314 317 313 318 318 309 300 298 304 318
185 183 183 186 187 190 190 191 189 181 189 190 200 215 197 190 163 156 150 137 306 309 316 327 324 319 326 346 337 330 322 314
178 176 178 182 185 190 190 187 176 179 182 192 208 199 201 214 242 236 194 294 305 313 322 315 314 321 341 348 351 346 335 314
173 175 174 175 182 192 188 175 181 185 185 192 185 172 181 204 244 227 268 284 294 302 313 321 329 324 325 327 333 338 337 335
172 175 175 174 186 196 181 185 186 192 183 181 186 196 224 243 261 252 263 292 301 306 307 305 310 312 314 320 328 335 339 340
174 179 183 188 198 184 184 187 189 179 185 185 194 210 228 243 268 283 297 316 315 312 313 308 301 310 311 315 329 344 358 16
173 179 186 192 203 204 177 175 173 185 185 178 187 203 237 281 297 306 319 317 342 342 347 337 321 305 308 319 347 2 358 9
176 178 184 189 213 181 174 166 170 172 175 187 207 244 249 277 304 320 318 339 343 338 346 15 11 326 313 327 348 13 356 347
169 177 179 192 173 169 162 166 173 174 180 186 210 222 244 285 304 321 328 324 290 61 105 2 24 341 322 349 340 325 355 1
173 174 179 169 162 159 164 174 173 176 199 212 222 245 237 290 329 333 49 141 133 137 115 65 133 154 46 25 6 6 16 18
174 174 175 157 155 164 170 177 177 191 197 191 218 246 236 310 350 155 121 147 151 105 74 101 120 100 22 23 26 31 27 18
166 169 158 155 157 165 168 177 188 188 195 213 242 277 248 353 161 133 103 148 148 126 95 83 34 10 30 26 26 25 24 12
154 155 159 155 152 165 175 186 193 200 209 236 295 268 215 170 168 130 94 140 141 100 104 76 40 29 24 33 51 31 8 11